Location: Norton
(51.3000°N, 0.8167°E)
Time: 02:58:42
(UTC+00:00)

Cosmos 2369 Rocket - Pass Details

Date: 03 March 2021
Orbit: 829 x 852 km, 71.0° (Epoch: 12 April)

Event Time Altitude Azimuth Distance (km) Brightness Sun altitude
Rises 19:42:53 0° 327° (NNW) 3,384 6.1 -19.7°
Reaches altitude 10° 19:46:45 10° 353° (N) 2,448 4.9 -20.3°
Maximum altitude 19:49:29 14° 23° (NNE) 2,203 4.3 -20.7°
Enters shadow 19:51:10 12° 42° (NE) 2,300 4.2 -20.9°
